Time,TemperatureF,DewpointF,PressureIn,WindDirection,WindDirectionDegrees,WindSpeedMPH,WindSpeedGustMPH,Humidity,HourlyPrecipIn,Conditions,Clouds,dailyrainin,SolarRadiationWatts/m^2,SoftwareType,DateUTC
2017-04-27 00:02:00,70.6,52.7,29.40,South,176,3.0,4.0,53,0.00,,---,0.00,0.00,VWS V14.01,2017-04-27 04:02:00,
2017-04-27 00:07:00,70.5,52.6,29.40,South,176,3.0,5.0,53,0.00,,---,0.00,0.00,VWS V14.01,2017-04-27 04:07:00,
2017-04-27 00:12:00,70.3,52.4,29.40,South,176,4.0,6.0,53,0.00,,---,0.00,0.00,VWS V14.01,2017-04-27 04:12:00,
2017-04-27 00:17:00,70.2,52.8,29.40,South,176,4.0,6.0,54,0.00,,---,0.00,0.00,VWS V14.01,2017-04-27 04:17:00,
2017-04-27 00:22:00,70.1,52.7,29.40,South,176,5.0,6.0,54,0.00,,---,0.00,0.00,VWS V14.01,2017-04-27 04:22:00,
2017-04-27 00:27:00,69.9,52.5,29.40,South,176,1.0,6.0,54,0.00,,---,0.00,0.00,VWS V14.01,2017-04-27 04:27:00,
2017-04-27 00:32:00,69.7,52.8,29.40,South,176,3.0,5.0,55,0.00,,---,0.00,0.00,VWS V14.01,2017-04-27 04:32:00,
2017-04-27 00:37:00,69.6,53.2,29.40,South,176,2.0,5.0,56,0.00,,---,0.00,0.00,VWS V14.01,2017-04-27 04:37:00,
2017-04-27 00:42:00,69.4,53.0,29.40,South,176,3.0,7.0,56,0.00,,---,0.00,0.00,VWS V14.01,2017-04-27 04:42:00,
2017-04-27 00:47:00,69.4,53.5,29.40,South,173,2.0,6.0,57,0.00,,---,0.00,0.00,VWS V14.01,2017-04-27 04:47:00,
2017-04-27 00:52:00,69.3,53.4,29.40,South,173,5.0,5.0,57,0.00,,---,0.00,0.00,VWS V14.01,2017-04-27 04:52:00,
2017-04-27 00:57:00,69.3,53.9,29.41,South,173,4.0,7.0,58,0.00,,---,0.00,0.00,VWS V14.01,2017-04-27 04:57:00,
2017-04-27 01:02:00,69.3,53.9,29.41,South,173,2.0,7.0,58,0.00,,---,0.00,0.00,VWS V14.01,2017-04-27 05:02:00,
2017-04-27 01:07:00,69.2,53.8,29.41,South,173,3.0,5.0,58,0.00,,---,0.00,0.00,VWS V14.01,2017-04-27 05:07:00,
2017-04-27 01:12:00,69.1,54.2,29.41,South,173,0.0,3.0,59,0.00,,---,0.00,0.00,VWS V14.01,2017-04-27 05:12:00,
2017-04-27 01:17:00,69.0,54.1,29.41,South,173,4.0,5.0,59,0.00,,---,0.00,0.00,VWS V14.01,2017-04-27 05:17:00,
2017-04-27 01:22:00,69.1,54.7,29.41,South,173,4.0,5.0,60,0.00,,---,0.00,0.00,VWS V14.01,2017-04-27 05:22:00,
2017-04-27 01:27:00,69.3,54.8,29.41,South,173,2.0,5.0,60,0.00,,---,0.00,0.00,VWS V14.01,2017-04-27 05:27:00,
2017-04-27 01:32:00,69.4,54.9,29.41,South,173,2.0,4.0,60,0.00,,---,0.00,0.00,VWS V14.01,2017-04-27 05:32:00,
2017-04-27 01:37:00,69.5,55.0,29.41,South,173,1.0,4.0,60,0.00,,---,0.00,0.00,VWS V14.01,2017-04-27 05:37:00,
2017-04-27 01:42:00,69.5,55.0,29.41,South,171,4.0,5.0,60,0.00,,---,0.00,0.00,VWS V14.01,2017-04-27 05:42:00,
2017-04-27 01:47:00,69.8,55.8,29.41,South,185,5.0,10.0,61,0.00,,---,0.00,0.00,VWS V14.01,2017-04-27 05:47:00,
2017-04-27 01:52:00,70.2,55.7,29.41,South,186,2.0,8.0,60,0.00,,---,0.00,0.00,VWS V14.01,2017-04-27 05:52:00,
2017-04-27 01:57:00,70.7,56.2,29.41,SSW,196,6.0,11.0,60,0.00,,---,0.00,0.00,VWS V14.01,2017-04-27 05:57:00,
2017-04-27 02:02:00,71.3,56.7,29.41,SSW,207,6.0,6.0,60,0.00,,---,0.00,0.00,VWS V14.01,2017-04-27 06:02:00,
2017-04-27 02:07:00,71.7,56.6,29.41,SW,217,10.0,10.0,59,0.00,,---,0.00,0.00,VWS V14.01,2017-04-27 06:07:00,
2017-04-27 02:12:00,72.0,56.4,29.41,SSW,211,6.0,9.0,58,0.00,,---,0.00,0.00,VWS V14.01,2017-04-27 06:12:00,
2017-04-27 02:17:00,72.2,56.6,29.41,SSW,204,7.0,7.0,58,0.00,,---,0.00,0.00,VWS V14.01,2017-04-27 06:17:00,
2017-04-27 02:22:00,72.2,56.6,29.41,SSW,207,5.0,6.0,58,0.00,,---,0.00,0.00,VWS V14.01,2017-04-27 06:22:00,
2017-04-27 02:27:00,72.2,56.6,29.40,SSW,208,5.0,5.0,58,0.00,,---,0.00,0.00,VWS V14.01,2017-04-27 06:27:00,
2017-04-27 02:32:00,72.1,56.5,29.40,SSW,203,3.0,7.0,58,0.00,,---,0.00,0.00,VWS V14.01,2017-04-27 06:32:00,
2017-04-27 02:37:00,72.0,56.9,29.40,South,188,4.0,4.0,59,0.00,,---,0.00,0.00,VWS V14.01,2017-04-27 06:37:00,
2017-04-27 02:42:00,71.8,56.7,29.40,South,188,5.0,7.0,59,0.00,,---,0.00,0.00,VWS V14.01,2017-04-27 06:42:00,
2017-04-27 02:47:00,71.7,57.1,29.40,South,185,3.0,3.0,60,0.00,,---,0.00,0.00,VWS V14.01,2017-04-27 06:47:00,
2017-04-27 02:52:00,71.4,56.8,29.40,South,181,3.0,3.0,60,0.00,,---,0.00,0.00,VWS V14.01,2017-04-27 06:52:00,
2017-04-27 02:57:00,71.2,57.1,29.40,South,186,1.0,2.0,61,0.00,,---,0.00,0.00,VWS V14.01,2017-04-27 06:57:00,
2017-04-27 03:02:00,71.0,56.9,29.40,South,184,5.0,5.0,61,0.00,,---,0.00,0.00,VWS V14.01,2017-04-27 07:02:00,
2017-04-27 03:07:00,70.9,57.2,29.41,South,184,2.0,4.0,62,0.00,,---,0.00,0.00,VWS V14.01,2017-04-27 07:07:00,
2017-04-27 03:12:00,70.7,57.1,29.40,South,185,6.0,6.0,62,0.00,,---,0.00,0.00,VWS V14.01,2017-04-27 07:12:00,
2017-04-27 03:17:00,70.6,57.0,29.40,SSW,193,2.0,3.0,62,0.00,,---,0.00,0.00,VWS V14.01,2017-04-27 07:17:00,
2017-04-27 03:18:00,70.6,57.0,29.40,SSW,192,5.0,5.0,62,0.00,,---,0.00,0.00,VWS V14.01,2017-04-27 07:18:00,
2017-04-27 03:23:00,70.6,57.4,29.40,SSW,196,4.0,4.0,63,0.00,,---,0.00,0.00,VWS V14.01,2017-04-27 07:23:00,
2017-04-27 03:28:00,70.5,57.3,29.40,South,187,6.0,6.0,63,0.00,,---,0.00,0.00,VWS V14.01,2017-04-27 07:28:00,
2017-04-27 03:33:00,70.4,57.2,29.40,South,188,2.0,6.0,63,0.00,,---,0.00,0.00,VWS V14.01,2017-04-27 07:33:00,
2017-04-27 03:38:00,70.3,57.1,29.39,SSW,196,1.0,7.0,63,0.00,,---,0.00,0.00,VWS V14.01,2017-04-27 07:38:00,
2017-04-27 03:43:00,70.1,57.4,29.39,SSW,198,3.0,3.0,64,0.00,,---,0.00,0.00,VWS V14.01,2017-04-27 07:43:00,
2017-04-27 03:48:00,69.9,57.2,29.39,SSW,198,3.0,5.0,64,0.00,,---,0.00,0.00,VWS V14.01,2017-04-27 07:48:00,
2017-04-27 03:53:00,69.8,57.5,29.39,SSW,196,4.0,6.0,65,0.00,,---,0.00,0.00,VWS V14.01,2017-04-27 07:53:00,
2017-04-27 03:58:00,69.7,57.4,29.39,SSW,196,3.0,5.0,65,0.00,,---,0.00,0.00,VWS V14.01,2017-04-27 07:58:00,
2017-04-27 04:03:00,69.7,57.4,29.39,SSW,192,4.0,6.0,65,0.00,,---,0.00,0.00,VWS V14.01,2017-04-27 08:03:00,
2017-04-27 04:08:00,69.7,57.8,29.39,SSW,192,5.0,7.0,66,0.00,,---,0.00,0.00,VWS V14.01,2017-04-27 08:08:00,
2017-04-27 04:13:00,69.8,57.9,29.39,South,188,7.0,7.0,66,0.00,,---,0.00,0.00,VWS V14.01,2017-04-27 08:13:00,
2017-04-27 04:18:00,69.9,57.6,29.39,South,188,3.0,10.0,65,0.00,,---,0.00,0.00,VWS V14.01,2017-04-27 08:18:00,
2017-04-27 04:23:00,70.0,57.7,29.39,SW,215,5.0,10.0,65,0.00,,---,0.00,0.00,VWS V14.01,2017-04-27 08:23:00,
2017-04-27 04:28:00,70.2,57.9,29.39,SSW,194,6.0,9.0,65,0.00,,---,0.00,0.00,VWS V14.01,2017-04-27 08:28:00,
2017-04-27 04:33:00,70.3,58.0,29.39,SSW,203,6.0,12.0,65,0.00,,---,0.00,0.00,VWS V14.01,2017-04-27 08:33:00,
2017-04-27 04:38:00,70.5,58.2,29.39,SSW,201,6.0,10.0,65,0.00,,---,0.00,0.00,VWS V14.01,2017-04-27 08:38:00,
2017-04-27 04:43:00,70.7,58.4,29.39,SW,229,10.0,12.0,65,0.00,,---,0.00,0.00,VWS V14.01,2017-04-27 08:43:00,
2017-04-27 04:48:00,70.8,58.0,29.40,SW,216,13.0,15.0,64,0.00,,---,0.00,0.00,VWS V14.01,2017-04-27 08:48:00,
2017-04-27 04:53:00,70.9,58.1,29.40,SSW,211,13.0,13.0,64,0.00,,---,0.00,0.00,VWS V14.01,2017-04-27 08:53:00,
2017-04-27 04:58:00,71.0,58.2,29.40,SSW,207,16.0,17.0,64,0.00,,---,0.00,0.00,VWS V14.01,2017-04-27 08:58:00,
2017-04-27 05:03:00,71.1,58.3,29.40,SW,216,10.0,13.0,64,0.00,,---,0.00,0.00,VWS V14.01,2017-04-27 09:03:00,
2017-04-27 05:08:00,71.0,58.2,29.40,SSW,213,9.0,13.0,64,0.00,,---,0.00,0.00,VWS V14.01,2017-04-27 09:08:00,
2017-04-27 05:13:00,71.0,58.2,29.40,SSW,211,9.0,13.0,64,0.00,,---,0.00,0.00,VWS V14.01,2017-04-27 09:13:00,
2017-04-27 05:18:00,71.0,58.2,29.40,SSW,199,7.0,18.0,64,0.00,,---,0.00,0.00,VWS V14.01,2017-04-27 09:18:00,
2017-04-27 05:23:00,70.8,58.5,29.41,SSW,206,6.0,13.0,65,0.00,,---,0.00,0.00,VWS V14.01,2017-04-27 09:23:00,
2017-04-27 05:24:00,70.8,58.5,29.41,SSW,196,7.0,7.0,65,0.00,,---,0.00,0.00,VWS V14.01,2017-04-27 09:24:00,
2017-04-27 05:29:00,70.6,58.3,29.41,SW,218,16.0,18.0,65,0.00,,---,0.00,0.00,VWS V14.01,2017-04-27 09:29:00,
2017-04-27 05:34:00,70.4,58.1,29.40,SW,226,6.0,11.0,65,0.00,,---,0.00,0.00,VWS V14.01,2017-04-27 09:34:00,
2017-04-27 05:39:00,70.2,57.9,29.40,SW,221,6.0,6.0,65,0.00,,---,0.00,0.00,VWS V14.01,2017-04-27 09:39:00,
2017-04-27 05:44:00,69.8,57.5,29.40,SW,223,3.0,6.0,65,0.00,,---,0.00,0.00,VWS V14.01,2017-04-27 09:44:00,
2017-04-27 05:49:00,69.4,56.7,29.40,SW,232,5.0,6.0,64,0.00,,---,0.00,0.00,VWS V14.01,2017-04-27 09:49:00,
2017-04-27 05:54:00,69.0,56.3,29.40,SW,232,3.0,5.0,64,0.00,,---,0.00,0.00,VWS V14.01,2017-04-27 09:54:00,
2017-04-27 06:00:00,68.6,55.5,29.40,SW,232,5.0,5.0,63,0.00,,---,0.00,0.00,VWS V14.01,2017-04-27 10:00:00,
2017-04-27 06:05:00,68.4,55.3,29.40,SW,226,4.0,4.0,63,0.00,,---,0.00,0.00,VWS V14.01,2017-04-27 10:05:00,
2017-04-27 06:09:00,68.2,55.1,29.40,SW,226,7.0,7.0,63,0.00,,---,0.00,0.00,VWS V14.01,2017-04-27 10:09:00,
2017-04-27 06:14:00,68.0,54.5,29.40,SW,226,0.0,3.0,62,0.00,,---,0.00,0.00,VWS V14.01,2017-04-27 10:14:00,
2017-04-27 06:20:00,67.9,54.0,29.40,SW,226,2.0,2.0,61,0.00,,---,0.00,0.00,VWS V14.01,2017-04-27 10:20:00,
2017-04-27 06:25:00,67.7,53.3,29.39,SW,226,2.0,3.0,60,0.00,,---,0.00,0.00,VWS V14.01,2017-04-27 10:25:00,
2017-04-27 06:30:00,67.6,53.2,29.39,SW,226,3.0,3.0,60,0.00,,---,0.00,0.00,VWS V14.01,2017-04-27 10:30:00,
2017-04-27 06:35:00,67.5,53.6,29.40,SW,226,2.0,2.0,61,0.00,,---,0.00,0.00,VWS V14.01,2017-04-27 10:35:00,
2017-04-27 06:40:00,67.4,53.5,29.39,SW,226,0.0,0.0,61,0.00,,---,0.00,0.00,VWS V14.01,2017-04-27 10:40:00,
2017-04-27 06:45:00,67.4,53.5,29.39,SW,226,0.0,0.0,61,0.00,,---,0.00,0.00,VWS V14.01,2017-04-27 10:45:00,
2017-04-27 06:50:00,67.2,53.8,29.39,SW,226,0.0,0.0,62,0.00,,---,0.00,0.00,VWS V14.01,2017-04-27 10:50:00,
2017-04-27 06:55:00,67.1,53.7,29.40,SW,223,4.0,4.0,62,0.00,,---,0.00,0.00,VWS V14.01,2017-04-27 10:55:00,
2017-04-27 07:00:00,67.1,53.7,29.39,SW,222,0.0,2.0,62,0.00,,---,0.00,5.00,VWS V14.01,2017-04-27 11:00:00,
2017-04-27 07:01:00,67.0,53.6,29.39,SW,222,1.0,1.0,62,0.00,,---,0.00,5.00,VWS V14.01,2017-04-27 11:01:00,
2017-04-27 07:06:00,67.0,54.0,29.37,SW,222,0.0,1.0,63,0.00,,---,0.00,9.00,VWS V14.01,2017-04-27 11:06:00,
2017-04-27 07:11:00,66.9,54.3,29.40,SW,222,3.0,3.0,64,0.00,,---,0.00,14.00,VWS V14.01,2017-04-27 11:11:00,
2017-04-27 07:16:00,66.7,54.6,29.38,SW,220,2.0,2.0,65,0.00,,---,0.00,21.00,VWS V14.01,2017-04-27 11:16:00,
2017-04-27 07:21:00,66.6,54.5,29.37,SW,220,0.0,0.0,65,0.00,,---,0.00,18.00,VWS V14.01,2017-04-27 11:21:00,
2017-04-27 07:22:00,66.6,54.5,29.37,SW,220,0.0,4.0,65,0.00,,---,0.00,16.00,VWS V14.01,2017-04-27 11:22:00,
2017-04-27 07:27:00,66.5,54.4,29.37,SW,220,4.0,4.0,65,0.00,,---,0.00,21.00,VWS V14.01,2017-04-27 11:27:00,
2017-04-27 07:32:00,66.4,54.3,29.37,SW,220,0.0,0.0,65,0.00,,---,0.00,26.00,VWS V14.01,2017-04-27 11:32:00,
2017-04-27 07:37:00,66.5,54.4,29.37,SW,220,0.0,0.0,65,0.00,,---,0.00,23.00,VWS V14.01,2017-04-27 11:37:00,
2017-04-27 07:42:00,66.6,54.9,29.37,SW,220,0.0,2.0,66,0.00,,---,0.00,47.00,VWS V14.01,2017-04-27 11:42:00,
2017-04-27 07:47:00,66.7,55.0,29.38,SW,220,4.0,7.0,66,0.00,,---,0.00,47.00,VWS V14.01,2017-04-27 11:47:00,
2017-04-27 07:52:00,66.7,55.0,29.39,SW,218,4.0,6.0,66,0.00,,---,0.00,40.00,VWS V14.01,2017-04-27 11:52:00,
2017-04-27 07:57:00,66.7,55.0,29.39,SW,217,5.0,5.0,66,0.00,,---,0.00,53.00,VWS V14.01,2017-04-27 11:57:00,
2017-04-27 08:02:00,66.7,55.4,29.39,SW,216,0.0,4.0,67,0.00,,---,0.00,60.00,VWS V14.01,2017-04-27 12:02:00,
2017-04-27 08:07:00,66.7,55.4,29.40,SW,216,3.0,5.0,67,0.00,,---,0.00,60.00,VWS V14.01,2017-04-27 12:07:00,
2017-04-27 08:12:00,66.8,55.5,29.40,SW,216,6.0,7.0,67,0.00,,---,0.00,76.00,VWS V14.01,2017-04-27 12:12:00,
2017-04-27 08:17:00,67.0,55.7,29.39,SW,216,4.0,5.0,67,0.00,,---,0.00,77.00,VWS V14.01,2017-04-27 12:17:00,
2017-04-27 08:22:00,67.3,56.0,29.40,SW,216,6.0,6.0,67,0.00,,---,0.00,234.00,VWS V14.01,2017-04-27 12:22:00,
2017-04-27 08:27:00,68.3,56.5,29.39,SW,216,5.0,6.0,66,0.00,,---,0.00,399.00,VWS V14.01,2017-04-27 12:27:00,
2017-04-27 08:32:00,68.4,56.2,29.39,SW,215,5.0,7.0,65,0.00,,---,0.00,260.00,VWS V14.01,2017-04-27 12:32:00,
2017-04-27 08:37:00,68.2,57.2,29.39,SSW,211,6.0,6.0,68,0.00,,---,0.00,135.00,VWS V14.01,2017-04-27 12:37:00,
2017-04-27 08:42:00,67.9,57.0,29.40,SSW,210,5.0,7.0,68,0.00,,---,0.00,144.00,VWS V14.01,2017-04-27 12:42:00,
2017-04-27 08:47:00,68.0,57.1,29.40,SSW,203,10.0,11.0,68,0.00,,---,0.00,229.00,VWS V14.01,2017-04-27 12:47:00,
2017-04-27 08:52:00,68.3,57.3,29.40,SSW,207,5.0,7.0,68,0.00,,---,0.00,271.00,VWS V14.01,2017-04-27 12:52:00,
2017-04-27 08:57:00,68.7,57.3,29.40,SSW,205,4.0,7.0,67,0.00,,---,0.00,197.00,VWS V14.01,2017-04-27 12:57:00,
2017-04-27 09:02:00,69.0,57.6,29.39,SSW,204,2.0,5.0,67,0.00,,---,0.00,369.00,VWS V14.01,2017-04-27 13:02:00,
2017-04-27 09:07:00,69.7,57.8,29.39,SSW,201,5.0,9.0,66,0.00,,---,0.00,250.00,VWS V14.01,2017-04-27 13:07:00,
2017-04-27 09:12:00,69.7,58.3,29.39,SSW,198,7.0,7.0,67,0.00,,---,0.00,241.00,VWS V14.01,2017-04-27 13:12:00,
2017-04-27 09:17:00,69.7,58.3,29.40,SSW,192,3.0,5.0,67,0.00,,---,0.00,120.00,VWS V14.01,2017-04-27 13:17:00,
2017-04-27 09:22:00,69.6,58.6,29.39,South,174,5.0,6.0,68,0.00,,---,0.00,163.00,VWS V14.01,2017-04-27 13:22:00,
2017-04-27 09:27:00,69.7,58.7,29.39,SSW,192,7.0,10.0,68,0.00,,---,0.00,211.00,VWS V14.01,2017-04-27 13:27:00,
2017-04-27 09:32:00,69.9,58.9,29.40,SSW,209,5.0,11.0,68,0.00,,---,0.00,253.00,VWS V14.01,2017-04-27 13:32:00,
2017-04-27 09:33:00,69.9,58.9,29.40,SSW,199,5.0,5.0,68,0.00,,---,0.00,244.00,VWS V14.01,2017-04-27 13:33:00,
2017-04-27 09:38:00,70.4,59.3,29.40,WSW,242,7.0,11.0,68,0.00,,---,0.00,202.00,VWS V14.01,2017-04-27 13:38:00,
2017-04-27 09:43:00,70.5,59.0,29.40,SW,220,7.0,11.0,67,0.00,,---,0.00,60.00,VWS V14.01,2017-04-27 13:43:00,
2017-04-27 09:48:00,70.3,59.2,29.40,SSW,193,15.0,19.0,68,0.00,,---,0.00,60.00,VWS V14.01,2017-04-27 13:48:00,
2017-04-27 09:53:00,70.3,59.2,29.42,WSW,244,5.0,12.0,68,0.00,,---,0.00,39.00,VWS V14.01,2017-04-27 13:53:00,
2017-04-27 09:58:00,68.9,57.9,29.42,WSW,258,10.0,20.0,68,0.00,,---,0.00,42.00,VWS V14.01,2017-04-27 13:58:00,
2017-04-27 10:03:00,67.1,57.4,29.42,West,261,13.0,15.0,71,0.00,,---,0.00,37.00,VWS V14.01,2017-04-27 14:03:00,
2017-04-27 10:08:00,65.6,57.1,29.42,WSW,246,8.0,15.0,74,0.00,,---,0.00,74.00,VWS V14.01,2017-04-27 14:08:00,
2017-04-27 10:13:00,64.7,57.3,29.43,SW,235,10.0,10.0,77,0.00,,---,0.00,113.00,VWS V14.01,2017-04-27 14:13:00,
2017-04-27 10:18:00,64.2,57.6,29.42,WSW,257,9.0,16.0,79,0.00,,---,0.00,128.00,VWS V14.01,2017-04-27 14:18:00,
2017-04-27 10:23:00,64.0,57.7,29.43,WSW,249,9.0,10.0,80,0.00,,---,0.00,91.00,VWS V14.01,2017-04-27 14:23:00,
2017-04-27 10:28:00,64.0,58.1,29.42,WSW,240,9.0,9.0,81,0.00,,---,0.00,58.00,VWS V14.01,2017-04-27 14:28:00,
2017-04-27 10:33:00,63.8,57.9,29.43,WSW,254,6.0,7.0,81,0.00,,---,0.00,74.00,VWS V14.01,2017-04-27 14:33:00,
2017-04-27 10:38:00,63.9,58.0,29.43,WSW,253,6.0,9.0,81,0.00,,---,0.00,130.00,VWS V14.01,2017-04-27 14:38:00,
2017-04-27 10:43:00,64.0,58.1,29.43,WSW,246,6.0,7.0,81,0.00,,---,0.00,90.00,VWS V14.01,2017-04-27 14:43:00,
2017-04-27 10:48:00,64.0,58.1,29.42,WSW,244,6.0,9.0,81,0.00,,---,0.00,109.00,VWS V14.01,2017-04-27 14:48:00,
2017-04-27 10:53:00,64.0,58.1,29.43,WSW,244,0.0,6.0,81,0.00,,---,0.00,107.00,VWS V14.01,2017-04-27 14:53:00,
2017-04-27 10:58:00,64.1,58.2,29.43,WSW,244,6.0,11.0,81,0.00,,---,0.00,37.00,VWS V14.01,2017-04-27 14:58:00,
2017-04-27 11:03:00,64.1,58.2,29.43,SW,225,5.0,7.0,81,0.00,,---,0.00,121.00,VWS V14.01,2017-04-27 15:03:00,
2017-04-27 11:08:00,64.0,58.1,29.43,SW,233,5.0,10.0,81,0.01,,---,0.01,169.00,VWS V14.01,2017-04-27 15:08:00,
2017-04-27 11:13:00,63.9,58.3,29.45,SSW,210,8.0,13.0,82,0.01,,---,0.01,221.00,VWS V14.01,2017-04-27 15:13:00,
2017-04-27 11:18:00,63.8,58.5,29.45,SW,219,6.0,12.0,83,0.01,,---,0.01,176.00,VWS V14.01,2017-04-27 15:18:00,
2017-04-27 11:23:00,63.7,58.8,29.45,SSW,211,10.0,10.0,84,0.01,,---,0.01,171.00,VWS V14.01,2017-04-27 15:23:00,
2017-04-27 11:28:00,63.7,58.8,29.45,SW,215,7.0,15.0,84,0.01,,---,0.01,183.00,VWS V14.01,2017-04-27 15:28:00,
2017-04-27 11:33:00,63.6,59.0,29.45,SW,222,5.0,14.0,85,0.01,,---,0.01,251.00,VWS V14.01,2017-04-27 15:33:00,
2017-04-27 11:38:00,63.8,59.2,29.45,SW,232,8.0,10.0,85,0.01,,---,0.01,311.00,VWS V14.01,2017-04-27 15:38:00,
2017-04-27 11:43:00,64.0,59.4,29.44,SW,217,4.0,9.0,85,0.01,,---,0.01,336.00,VWS V14.01,2017-04-27 15:43:00,
2017-04-27 11:48:00,64.9,60.6,29.45,SSW,204,6.0,13.0,86,0.01,,---,0.01,381.00,VWS V14.01,2017-04-27 15:48:00,
2017-04-27 11:53:00,66.3,61.0,29.45,SW,220,6.0,10.0,83,0.01,,---,0.01,571.00,VWS V14.01,2017-04-27 15:53:00,
2017-04-27 11:58:00,67.0,60.6,29.44,SW,221,9.0,9.0,80,0.01,,---,0.01,571.00,VWS V14.01,2017-04-27 15:58:00,
2017-04-27 12:03:00,67.0,60.3,29.44,SW,232,5.0,10.0,79,0.01,,---,0.01,334.00,VWS V14.01,2017-04-27 16:03:00,
2017-04-27 12:08:00,66.9,60.2,29.44,WSW,247,5.0,6.0,79,0.00,,---,0.01,378.00,VWS V14.01,2017-04-27 16:08:00,
2017-04-27 12:13:00,67.0,59.9,29.44,SSW,207,7.0,7.0,78,0.00,,---,0.01,364.00,VWS V14.01,2017-04-27 16:13:00,
2017-04-27 12:18:00,67.4,60.0,29.44,SSW,200,7.0,7.0,77,0.00,,---,0.01,327.00,VWS V14.01,2017-04-27 16:18:00,
2017-04-27 12:23:00,67.9,60.8,29.45,SSW,211,4.0,4.0,78,0.00,,---,0.01,436.00,VWS V14.01,2017-04-27 16:23:00,
2017-04-27 12:28:00,69.0,60.8,29.45,SW,222,7.0,8.0,75,0.00,,---,0.01,1325.00,VWS V14.01,2017-04-27 16:28:00,
2017-04-27 12:33:00,70.2,60.4,29.44,SW,233,12.0,12.0,71,0.00,,---,0.01,1023.00,VWS V14.01,2017-04-27 16:33:00,
2017-04-27 12:38:00,71.4,60.3,29.44,SSW,209,7.0,11.0,68,0.00,,---,0.01,1129.00,VWS V14.01,2017-04-27 16:38:00,
2017-04-27 12:43:00,72.2,59.8,29.43,SSW,200,13.0,13.0,65,0.00,,---,0.01,1118.00,VWS V14.01,2017-04-27 16:43:00,
2017-04-27 12:48:00,72.5,60.1,29.43,SW,224,14.0,14.0,65,0.00,,---,0.01,1127.00,VWS V14.01,2017-04-27 16:48:00,
2017-04-27 12:53:00,72.5,59.2,29.42,SW,222,12.0,14.0,63,0.00,,---,0.01,990.00,VWS V14.01,2017-04-27 16:53:00,
2017-04-27 12:58:00,72.6,58.8,29.43,SSW,205,11.0,17.0,62,0.00,,---,0.01,998.00,VWS V14.01,2017-04-27 16:58:00,
2017-04-27 13:08:00,73.5,59.7,29.43,SW,217,1.0,2.0,62,0.00,,---,0.01,1118.00,VWS V14.01,2017-04-27 17:08:00,
2017-04-27 13:13:00,74.0,58.8,29.43,SW,227,18.0,18.0,59,0.00,,---,0.01,970.00,VWS V14.01,2017-04-27 17:13:00,
2017-04-27 13:23:00,70.2,57.5,29.44,West,264,9.0,15.0,64,0.00,,---,0.01,141.00,VWS V14.01,2017-04-27 17:23:00,
2017-04-27 13:28:00,67.6,57.9,29.45,West,264,5.0,9.0,71,0.01,,---,0.02,105.00,VWS V14.01,2017-04-27 17:28:00,
2017-04-27 13:33:00,65.6,58.2,29.46,WSW,239,7.0,10.0,77,0.03,,---,0.04,114.00,VWS V14.01,2017-04-27 17:33:00,
2017-04-27 13:39:00,64.4,58.8,29.47,WSW,251,10.0,10.0,82,0.03,,---,0.04,257.00,VWS V14.01,2017-04-27 17:39:00,
2017-04-27 13:44:00,64.5,59.6,29.47,WSW,242,5.0,5.0,84,0.03,,---,0.04,299.00,VWS V14.01,2017-04-27 17:44:00,
2017-04-27 13:49:00,64.8,59.5,29.47,SW,221,3.0,8.0,83,0.03,,---,0.04,267.00,VWS V14.01,2017-04-27 17:49:00,
2017-04-27 13:54:00,65.4,60.1,29.47,WSW,246,9.0,12.0,83,0.03,,---,0.04,422.00,VWS V14.01,2017-04-27 17:54:00,
2017-04-27 13:59:00,67.3,61.6,29.47,WSW,245,3.0,7.0,82,0.04,,---,0.05,311.00,VWS V14.01,2017-04-27 17:59:00,
2017-04-27 14:04:00,68.2,61.1,29.47,SW,232,7.0,8.0,78,0.04,,---,0.05,621.00,VWS V14.01,2017-04-27 18:04:00,
2017-04-27 14:09:00,69.1,60.5,29.48,SSW,208,5.0,10.0,74,0.04,,---,0.05,1318.00,VWS V14.01,2017-04-27 18:09:00,
2017-04-27 14:14:00,69.5,58.9,29.47,WSW,257,14.0,19.0,69,0.04,,---,0.05,1127.00,VWS V14.01,2017-04-27 18:14:00,
2017-04-27 14:19:00,70.9,58.6,29.47,WSW,247,6.0,13.0,65,0.04,,---,0.05,1099.00,VWS V14.01,2017-04-27 18:19:00,
2017-04-27 14:24:00,71.6,58.3,29.48,WSW,246,6.0,14.0,63,0.04,,---,0.05,295.00,VWS V14.01,2017-04-27 18:24:00,
2017-04-27 14:29:00,70.3,56.2,29.48,West,262,9.0,11.0,61,0.03,,---,0.05,295.00,VWS V14.01,2017-04-27 18:29:00,
2017-04-27 14:34:00,70.0,57.3,29.48,WSW,240,10.0,13.0,64,0.01,,---,0.05,468.00,VWS V14.01,2017-04-27 18:34:00,
2017-04-27 14:39:00,70.5,56.9,29.49,SW,223,9.0,15.0,62,0.01,,---,0.05,1187.00,VWS V14.01,2017-04-27 18:39:00,
2017-04-27 14:44:00,70.2,55.7,29.49,WSW,242,10.0,16.0,60,0.01,,---,0.05,385.00,VWS V14.01,2017-04-27 18:44:00,
2017-04-27 14:49:00,69.4,55.4,29.50,SW,232,6.0,12.0,61,0.01,,---,0.05,355.00,VWS V14.01,2017-04-27 18:49:00,
2017-04-27 14:54:00,68.9,54.9,29.50,WSW,248,6.0,16.0,61,0.01,,---,0.05,413.00,VWS V14.01,2017-04-27 18:54:00,
2017-04-27 14:59:00,68.3,55.7,29.50,WSW,240,9.0,17.0,64,0.00,,---,0.05,1194.00,VWS V14.01,2017-04-27 18:59:00,
2017-04-27 15:04:00,68.0,55.0,29.50,WSW,240,13.0,13.0,63,0.00,,---,0.05,253.00,VWS V14.01,2017-04-27 19:04:00,
2017-04-27 15:09:00,68.1,55.0,29.51,WSW,256,7.0,10.0,63,0.00,,---,0.05,807.00,VWS V14.01,2017-04-27 19:09:00,
2017-04-27 15:14:00,68.1,55.0,29.51,West,275,9.0,13.0,63,0.00,,---,0.05,615.00,VWS V14.01,2017-04-27 19:14:00,
2017-04-27 15:19:00,68.3,54.8,29.51,WSW,256,10.0,12.0,62,0.00,,---,0.05,812.00,VWS V14.01,2017-04-27 19:19:00,
2017-04-27 15:21:00,68.6,55.1,29.52,WSW,250,10.0,10.0,62,0.00,,---,0.05,1037.00,VWS V14.01,2017-04-27 19:21:00,
2017-04-27 15:26:00,68.8,54.4,29.52,SW,232,11.0,11.0,60,0.00,,---,0.05,1037.00,VWS V14.01,2017-04-27 19:26:00,
2017-04-27 15:31:00,68.1,53.7,29.53,WSW,241,12.0,13.0,60,0.00,,---,0.05,580.00,VWS V14.01,2017-04-27 19:31:00,
2017-04-27 15:36:00,67.7,53.8,29.53,West,267,10.0,14.0,61,0.00,,---,0.05,1037.00,VWS V14.01,2017-04-27 19:36:00,
2017-04-27 15:41:00,68.0,53.2,29.53,WSW,245,11.0,11.0,59,0.00,,---,0.05,357.00,VWS V14.01,2017-04-27 19:41:00,
2017-04-27 15:46:00,67.4,53.5,29.53,SW,236,5.0,10.0,61,0.00,,---,0.05,417.00,VWS V14.01,2017-04-27 19:46:00,
2017-04-27 15:51:00,67.5,53.6,29.54,WSW,252,7.0,11.0,61,0.00,,---,0.05,250.00,VWS V14.01,2017-04-27 19:51:00,
2017-04-27 15:56:00,67.0,52.7,29.54,WSW,248,13.0,13.0,60,0.00,,---,0.05,413.00,VWS V14.01,2017-04-27 19:56:00,
2017-04-27 16:01:00,66.6,52.3,29.54,WSW,238,9.0,12.0,60,0.00,,---,0.05,566.00,VWS V14.01,2017-04-27 20:01:00,
2017-04-27 16:06:00,67.1,51.8,29.54,WNW,284,12.0,15.0,58,0.00,,---,0.05,976.00,VWS V14.01,2017-04-27 20:06:00,
2017-04-27 16:12:00,66.4,51.2,29.54,West,271,10.0,12.0,58,0.00,,---,0.05,388.00,VWS V14.01,2017-04-27 20:12:00,
2017-04-27 16:17:00,65.9,51.6,29.55,WSW,252,5.0,9.0,60,0.00,,---,0.05,350.00,VWS V14.01,2017-04-27 20:17:00,
2017-04-27 16:22:00,66.1,51.8,29.56,West,261,5.0,18.0,60,0.00,,---,0.05,846.00,VWS V14.01,2017-04-27 20:22:00,
2017-04-27 16:27:00,66.3,50.2,29.55,WSW,239,12.0,20.0,56,0.00,,---,0.05,882.00,VWS V14.01,2017-04-27 20:27:00,
2017-04-27 16:32:00,66.1,50.0,29.55,WSW,244,8.0,8.0,56,0.00,,---,0.05,232.00,VWS V14.01,2017-04-27 20:32:00,
2017-04-27 16:37:00,66.2,50.1,29.56,WSW,257,11.0,11.0,56,0.00,,---,0.05,759.00,VWS V14.01,2017-04-27 20:37:00,
2017-04-27 16:42:00,66.5,50.3,29.56,SW,233,11.0,14.0,56,0.00,,---,0.05,726.00,VWS V14.01,2017-04-27 20:42:00,
2017-04-27 16:47:00,66.6,50.0,29.56,SW,223,16.0,16.0,55,0.00,,---,0.05,214.00,VWS V14.01,2017-04-27 20:47:00,
2017-04-27 16:52:00,65.7,50.1,29.56,West,264,9.0,9.0,57,0.00,,---,0.05,151.00,VWS V14.01,2017-04-27 20:52:00,
2017-04-27 16:57:00,64.9,50.2,29.57,WSW,248,11.0,12.0,59,0.00,,---,0.05,823.00,VWS V14.01,2017-04-27 20:57:00,
2017-04-27 17:02:00,65.2,50.1,29.57,WSW,243,4.0,9.0,58,0.00,,---,0.05,258.00,VWS V14.01,2017-04-27 21:02:00,
2017-04-27 17:07:00,65.9,50.2,29.57,West,259,5.0,11.0,57,0.00,,---,0.05,316.00,VWS V14.01,2017-04-27 21:07:00,
2017-04-27 17:12:00,66.5,50.3,29.58,SW,229,8.0,11.0,56,0.00,,---,0.05,469.00,VWS V14.01,2017-04-27 21:12:00,
2017-04-27 17:17:00,66.7,50.0,29.58,West,260,10.0,12.0,55,0.00,,---,0.05,715.00,VWS V14.01,2017-04-27 21:17:00,
2017-04-27 17:22:00,65.6,49.5,29.58,WSW,238,5.0,10.0,56,0.00,,---,0.05,211.00,VWS V14.01,2017-04-27 21:22:00,
2017-04-27 17:27:00,64.7,49.6,29.58,SW,227,10.0,12.0,58,0.00,,---,0.05,234.00,VWS V14.01,2017-04-27 21:27:00,
2017-04-27 17:32:00,64.5,49.4,29.59,WSW,242,9.0,14.0,58,0.00,,---,0.05,700.00,VWS V14.01,2017-04-27 21:32:00,
2017-04-27 17:37:00,65.0,49.4,29.59,SW,227,7.0,11.0,57,0.00,,---,0.05,612.00,VWS V14.01,2017-04-27 21:37:00,
2017-04-27 17:42:00,65.2,49.1,29.59,WSW,239,5.0,9.0,56,0.00,,---,0.05,589.00,VWS V14.01,2017-04-27 21:42:00,
2017-04-27 17:47:00,64.7,48.7,29.59,WSW,249,10.0,12.0,56,0.00,,---,0.05,225.00,VWS V14.01,2017-04-27 21:47:00,
2017-04-27 17:52:00,64.5,49.0,29.59,West,264,9.0,11.0,57,0.00,,---,0.05,606.00,VWS V14.01,2017-04-27 21:52:00,
2017-04-27 17:57:00,64.3,48.8,29.59,West,272,7.0,10.0,57,0.00,,---,0.05,220.00,VWS V14.01,2017-04-27 21:57:00,
2017-04-27 18:02:00,64.2,48.7,29.60,West,259,8.0,8.0,57,0.00,,---,0.05,438.00,VWS V14.01,2017-04-27 22:02:00,
2017-04-27 18:07:00,64.5,48.5,29.60,WSW,238,3.0,10.0,56,0.00,,---,0.05,478.00,VWS V14.01,2017-04-27 22:07:00,
2017-04-27 18:12:00,65.0,49.4,29.60,West,263,5.0,10.0,57,0.00,,---,0.05,503.00,VWS V14.01,2017-04-27 22:12:00,
2017-04-27 18:17:00,64.7,48.7,29.61,West,259,2.0,5.0,56,0.00,,---,0.05,123.00,VWS V14.01,2017-04-27 22:17:00,
2017-04-27 18:22:00,64.3,48.8,29.61,SW,229,8.0,11.0,57,0.00,,---,0.05,480.00,VWS V14.01,2017-04-27 22:22:00,
2017-04-27 18:27:00,64.6,49.0,29.61,WSW,238,4.0,11.0,57,0.00,,---,0.05,452.00,VWS V14.01,2017-04-27 22:27:00,
2017-04-27 18:32:00,64.5,48.0,29.61,WSW,237,8.0,10.0,55,0.00,,---,0.05,369.00,VWS V14.01,2017-04-27 22:32:00,
2017-04-27 18:37:00,64.3,47.8,29.61,WSW,246,5.0,11.0,55,0.00,,---,0.05,345.00,VWS V14.01,2017-04-27 22:37:00,
2017-04-27 18:42:00,63.4,47.5,29.62,WSW,253,5.0,8.0,56,0.00,,---,0.05,260.00,VWS V14.01,2017-04-27 22:42:00,
2017-04-27 18:47:00,63.3,48.3,29.62,SW,226,10.0,10.0,58,0.00,,---,0.05,315.00,VWS V14.01,2017-04-27 22:47:00,
2017-04-27 18:52:00,63.1,47.6,29.62,WSW,246,5.0,9.0,57,0.00,,---,0.05,334.00,VWS V14.01,2017-04-27 22:52:00,
2017-04-27 18:57:00,63.4,47.5,29.62,West,276,9.0,12.0,56,0.00,,---,0.05,107.00,VWS V14.01,2017-04-27 22:57:00,
2017-04-27 19:02:00,62.9,47.9,29.62,West,267,7.0,10.0,58,0.00,,---,0.05,206.00,VWS V14.01,2017-04-27 23:02:00,
2017-04-27 19:07:00,62.8,48.3,29.62,West,274,5.0,9.0,59,0.00,,---,0.05,209.00,VWS V14.01,2017-04-27 23:07:00,
2017-04-27 19:12:00,62.8,47.8,29.62,SW,229,7.0,13.0,58,0.00,,---,0.05,102.00,VWS V14.01,2017-04-27 23:12:00,
2017-04-27 19:17:00,62.4,47.9,29.63,WSW,238,5.0,15.0,59,0.00,,---,0.05,199.00,VWS V14.01,2017-04-27 23:17:00,
2017-04-27 19:22:00,62.4,47.9,29.62,SW,236,6.0,9.0,59,0.00,,---,0.05,156.00,VWS V14.01,2017-04-27 23:22:00,
2017-04-27 19:27:00,62.5,48.0,29.63,WSW,239,3.0,7.0,59,0.00,,---,0.05,130.00,VWS V14.01,2017-04-27 23:27:00,
2017-04-27 19:32:00,62.2,46.8,29.63,WSW,251,7.0,10.0,57,0.00,,---,0.05,98.00,VWS V14.01,2017-04-27 23:32:00,
2017-04-27 19:37:00,61.7,47.2,29.63,SW,229,8.0,15.0,59,0.00,,---,0.05,69.00,VWS V14.01,2017-04-27 23:37:00,
2017-04-27 19:42:00,61.3,46.9,29.63,West,259,5.0,10.0,59,0.00,,---,0.05,44.00,VWS V14.01,2017-04-27 23:42:00,
2017-04-27 19:47:00,61.0,47.0,29.63,West,264,5.0,12.0,60,0.00,,---,0.05,58.00,VWS V14.01,2017-04-27 23:47:00,
2017-04-27 19:52:00,60.7,47.2,29.63,West,265,3.0,7.0,61,0.00,,---,0.05,67.00,VWS V14.01,2017-04-27 23:52:00,
2017-04-27 19:57:00,60.6,46.7,29.64,West,269,5.0,10.0,60,0.00,,---,0.05,60.00,VWS V14.01,2017-04-27 23:57:00,
2017-04-27 20:02:00,60.5,46.6,29.64,West,267,5.0,6.0,60,0.00,,---,0.05,46.00,VWS V14.01,2017-04-28 00:02:00,
2017-04-27 20:07:00,60.5,46.6,29.64,West,261,3.0,9.0,60,0.00,,---,0.05,33.00,VWS V14.01,2017-04-28 00:07:00,
2017-04-27 20:12:00,60.3,46.8,29.64,West,261,2.0,6.0,61,0.00,,---,0.05,21.00,VWS V14.01,2017-04-28 00:12:00,
2017-04-27 20:17:00,60.1,46.6,29.64,West,262,3.0,11.0,61,0.00,,---,0.05,14.00,VWS V14.01,2017-04-28 00:17:00,
2017-04-27 20:22:00,59.9,46.4,29.65,West,262,2.0,6.0,61,0.00,,---,0.05,9.00,VWS V14.01,2017-04-28 00:22:00,
2017-04-27 20:27:00,59.7,46.7,29.65,West,260,4.0,4.0,62,0.00,,---,0.05,5.00,VWS V14.01,2017-04-28 00:27:00,
2017-04-27 20:32:00,59.5,46.5,29.65,WSW,257,2.0,10.0,62,0.00,,---,0.05,0.00,VWS V14.01,2017-04-28 00:32:00,
2017-04-27 20:37:00,59.2,46.6,29.64,WSW,257,3.0,5.0,63,0.00,,---,0.05,0.00,VWS V14.01,2017-04-28 00:37:00,
2017-04-27 20:42:00,59.0,46.8,29.65,WSW,257,6.0,6.0,64,0.00,,---,0.05,0.00,VWS V14.01,2017-04-28 00:42:00,
2017-04-27 20:47:00,58.9,46.8,29.65,WSW,257,4.0,7.0,64,0.00,,---,0.05,0.00,VWS V14.01,2017-04-28 00:47:00,
2017-04-27 20:52:00,58.7,47.0,29.65,WSW,257,2.0,5.0,65,0.00,,---,0.05,0.00,VWS V14.01,2017-04-28 00:52:00,
2017-04-27 20:57:00,58.6,46.9,29.65,WSW,257,4.0,9.0,65,0.00,,---,0.05,0.00,VWS V14.01,2017-04-28 00:57:00,
2017-04-27 21:02:00,58.4,47.1,29.66,WSW,257,3.0,4.0,66,0.00,,---,0.05,0.00,VWS V14.01,2017-04-28 01:02:00,
2017-04-27 21:07:00,58.2,46.9,29.67,WSW,258,2.0,4.0,66,0.00,,---,0.05,0.00,VWS V14.01,2017-04-28 01:07:00,
2017-04-27 21:12:00,58.0,47.1,29.67,WSW,258,0.0,0.0,67,0.00,,---,0.05,0.00,VWS V14.01,2017-04-28 01:12:00,
2017-04-27 21:17:00,57.7,46.8,29.67,WSW,258,2.0,4.0,67,0.00,,---,0.05,0.00,VWS V14.01,2017-04-28 01:17:00,
2017-04-27 21:22:00,57.6,47.1,29.67,WSW,258,2.0,4.0,68,0.00,,---,0.05,0.00,VWS V14.01,2017-04-28 01:22:00,
2017-04-27 21:27:00,57.4,46.9,29.67,WSW,258,4.0,5.0,68,0.00,,---,0.05,0.00,VWS V14.01,2017-04-28 01:27:00,
2017-04-27 21:32:00,57.3,46.8,29.68,WSW,258,4.0,4.0,68,0.00,,---,0.05,0.00,VWS V14.01,2017-04-28 01:32:00,
2017-04-27 21:37:00,57.2,47.1,29.68,WSW,258,4.0,4.0,69,0.00,,---,0.05,0.00,VWS V14.01,2017-04-28 01:37:00,
2017-04-27 21:42:00,57.1,47.0,29.69,WSW,258,5.0,5.0,69,0.00,,---,0.05,0.00,VWS V14.01,2017-04-28 01:42:00,
2017-04-27 21:47:00,56.8,46.8,29.69,WSW,258,0.0,0.0,69,0.00,,---,0.05,0.00,VWS V14.01,2017-04-28 01:47:00,
2017-04-27 21:52:00,56.6,46.9,29.69,WSW,258,2.0,3.0,70,0.00,,---,0.05,0.00,VWS V14.01,2017-04-28 01:52:00,
2017-04-27 21:57:00,56.5,46.8,29.69,WSW,258,0.0,0.0,70,0.00,,---,0.05,0.00,VWS V14.01,2017-04-28 01:57:00,
2017-04-27 22:02:00,56.4,47.1,29.69,WSW,258,3.0,3.0,71,0.00,,---,0.05,0.00,VWS V14.01,2017-04-28 02:02:00,
2017-04-27 22:07:00,56.3,47.0,29.69,WSW,258,3.0,4.0,71,0.00,,---,0.05,0.00,VWS V14.01,2017-04-28 02:07:00,
2017-04-27 22:12:00,56.2,46.9,29.70,WSW,258,1.0,2.0,71,0.00,,---,0.05,0.00,VWS V14.01,2017-04-28 02:12:00,
2017-04-27 22:17:00,56.0,46.7,29.70,WSW,258,0.0,1.0,71,0.00,,---,0.05,0.00,VWS V14.01,2017-04-28 02:17:00,
2017-04-27 22:22:00,55.7,46.8,29.70,WSW,258,0.0,0.0,72,0.00,,---,0.05,0.00,VWS V14.01,2017-04-28 02:22:00,
2017-04-27 22:27:00,55.6,46.7,29.70,WSW,258,0.0,0.0,72,0.00,,---,0.05,0.00,VWS V14.01,2017-04-28 02:27:00,
2017-04-27 22:32:00,55.4,46.9,29.70,WSW,258,0.0,0.0,73,0.00,,---,0.05,0.00,VWS V14.01,2017-04-28 02:32:00,
2017-04-27 22:37:00,55.2,46.7,29.70,WSW,258,0.0,0.0,73,0.00,,---,0.05,0.00,VWS V14.01,2017-04-28 02:37:00,
2017-04-27 22:42:00,55.0,46.9,29.70,WSW,258,0.0,0.0,74,0.00,,---,0.05,0.00,VWS V14.01,2017-04-28 02:42:00,
2017-04-27 22:48:00,54.9,46.8,29.70,WSW,258,0.0,0.0,74,0.00,,---,0.05,0.00,VWS V14.01,2017-04-28 02:48:00,
2017-04-27 22:53:00,54.7,46.6,29.70,WSW,258,0.0,0.0,74,0.00,,---,0.05,0.00,VWS V14.01,2017-04-28 02:53:00,
2017-04-27 22:58:00,54.5,46.8,29.70,WSW,258,0.0,0.0,75,0.00,,---,0.05,0.00,VWS V14.01,2017-04-28 02:58:00,
2017-04-27 23:03:00,54.2,46.8,29.70,WSW,258,0.0,0.0,76,0.00,,---,0.05,0.00,VWS V14.01,2017-04-28 03:03:00,
2017-04-27 23:08:00,54.0,46.6,29.70,WSW,258,0.0,0.0,76,0.00,,---,0.05,0.00,VWS V14.01,2017-04-28 03:08:00,
2017-04-27 23:13:00,53.8,46.8,29.70,WSW,258,0.0,0.0,77,0.00,,---,0.05,0.00,VWS V14.01,2017-04-28 03:13:00,
2017-04-27 23:18:00,53.6,46.6,29.71,WSW,258,0.0,0.0,77,0.00,,---,0.05,0.00,VWS V14.01,2017-04-28 03:18:00,
2017-04-27 23:23:00,53.5,46.8,29.71,WSW,258,0.0,0.0,78,0.00,,---,0.05,0.00,VWS V14.01,2017-04-28 03:23:00,
2017-04-27 23:28:00,53.5,46.8,29.71,WSW,258,0.0,0.0,78,0.00,,---,0.05,0.00,VWS V14.01,2017-04-28 03:28:00,
2017-04-27 23:33:00,53.3,46.6,29.71,WSW,258,0.0,0.0,78,0.00,,---,0.05,0.00,VWS V14.01,2017-04-28 03:33:00,